Weather in Staroye Selo

Russia / Smolensk Oblast     55°19′16″N   33°48′45″E
temp.,
°C
wind,
m/s
gust,
m/s
humid.,
%
clouds,
%
prec.,
mm/h
press.,
hPa
HPBL,
m
22 april, thu
thu2200:00+3ssw38935 0.0 1010220
03:00+2s3109428 0.0 1011245
06:00+3s31096100 0.0 1011280
09:00+7ssw488483 0.4 1011413
12:00+12sw575811 0.6 10121396
15:00+13ssw475613 1.8 10111560
18:00+12ssw486961 1.3 1011823
21:00+8s310915 2.8 1012247
23 april, fri
fri2300:00+7s3119039 0.0 1011287
03:00+6s4129431 0.1 1011439
06:00+7sw4895100 0.5 1010751
09:00+3wsw2597100 4.2 1012475
12:00+6sw4676100 1.5 10121088
15:00+10sw5849100 1.6 10122149
18:00+8sw3658100 0.1 10111140
21:00+5wsw2675100 0.2 1012156
24 april, sat
sat2400:00+4sw2381100 0.0 1011104
03:00+2w2584100 0.0 1010150
06:000w269573 0.0 1010199
09:00+4wnw347397 0.0 1009920
12:00+5wnw3460100 0.2 10091415
15:00+6w4553100 0.9 10091605
18:00+6w46555 0.6 10101586
21:00+2wsw3877100 0.6 1011270
25 april, sun
sun2500:000wsw398852 0.0 1011282
03:00−1sw289276 0.0 1011232
06:000sw389398 0.0 1011513
09:00+2wsw586789 0.2 10101284
12:00+3wsw6970100 0.2 10111282
15:00+3wsw6968100 0.5 10121419
18:00+3sw486348 0.1 10121463
21:000ssw310825 0.1 1012358
26 april, mon
mon2600:000sw4128661 0.0 1012420
03:00−1sw3988100 0.0 1012340
06:00−1ssw388982 0.0 1012275
09:00+3sw466999 0.0 1011935
12:00+5wsw4655100 0.6 10111791
15:00+6wsw4551100 1.3 10101737
18:00+5w346255 0.6 10091146
21:00+1w228222 0.9 101037